CYBCCYQB

Guest
Details From CYBC - Baie Comeau
To CYQB - Quebec Jean Lesage Intl
Flight Number -
Tags Generated
Created
Modified
Stats Distance 190 nm / 352 km
Max Altitude 0 ft / 0 m
Waypoints 2
Social Downloads 2
Likes 0
Share VATSIM

Download

Looking for another format? Having issues loading an existing format? Contact us
Advertisement - Login to hide

Notes

Generated

Route

CYBC CYQB

ID Type Via Altitude Latitude Longitude Leg Dist Tot Dist Heading (true) Name
O CYBC APT - 0 ft / 0 m 49.13092˚ -68.21957˚ - 0 nm - -
O CYQB APT - 0 ft / 0 m 46.78883˚ -71.40294˚ 190 nm 190 nm 224° / 221° -

Altitude Profile

Advertisement - Login to hide

Weather


0- 5 10 15 20 25 30 35+ Temperature / ° C

Clouds and Precipitation
Forecast for 2018-05-27 06:00 UTC. Updated 3 hours ago

Ground ~20,000 ft ~40,000 ft Winds

CYBC

Details ICAO CYBC (YBC)
Name BAIE COMEAU
Region Canada
Timezone America/Montreal (UTC-4.0)
Stats Elevation 71 ft / 22 m (AMSL)
Location 49.132270° -68.207207°
Runways 1
Magnetic Variation 17.786° W

METAR

CYBC 270800Z AUTO 34003KT 9SM CLR M01/M02 A3023 RMK SLP240

Decode

TAF

TAF CYBC 270738Z 2708/2720 VRB03KT P6SM SKC BECMG 2712/2714 09012KT RMK FCST BASED ON AUTO OBS. NXT FCST BY 271400Z

Decode

Departure Runways

ID Width Length Bearing (true) Bearing (mag) Surface Threshold Offset Overrun Length
10 150 ft / 46 m 5,984 ft / 1,824 m 80.50° 98.29° Asphalt 0 ft / 0 m 0 ft / 0 m
28 150 ft / 46 m 5,984 ft / 1,824 m 260.52° 278.31° Asphalt 0 ft / 0 m 0 ft / 0 m

CYQB

Details ICAO CYQB (YQB)
Name Quebec Jean Lesage Intl
Region Canada
Timezone America/Montreal (UTC-4.0)
Stats Elevation 244 ft / 74 m (AMSL)
Location 46.789458° -71.392764°
Runways 2
Magnetic Variation 15.794° W

METAR

CYQB 270800Z 06010KT 15SM SKC 10/02 A3016 RMK SLP216

Decode

TAF

TAF CYQB 270538Z 2706/2806 07010KT P6SM SKC BECMG 2713/2715 08015KT FM271800 12010KT P6SM BKN050 FM280000 20010KT P6SM OVC040 RMK NXT FCST BY 271200Z

Decode

Destination Runways

ID Width Length Bearing (true) Bearing (mag) Surface Threshold Offset Overrun Length
06 150 ft / 46 m 9,020 ft / 2,749 m 44.00° 59.79° Asphalt 0 ft / 0 m 0 ft / 0 m
12 150 ft / 46 m 5,678 ft / 1,731 m 97.58° 113.37° Asphalt 0 ft / 0 m 0 ft / 0 m
24 150 ft / 46 m 9,020 ft / 2,749 m 224.02° 239.81° Asphalt 0 ft / 0 m 0 ft / 0 m
30 150 ft / 46 m 5,678 ft / 1,731 m 277.60° 293.39° Asphalt 0 ft / 0 m 0 ft / 0 m

Approach Navaids

Runway Type Ident Frequency Range Bearing (true) Bearing (mag) Slope Elevation
06 Localiser IQB 109.50 MHz 18 nm / 33 km 44.33° 60.12° - 197 ft / 60 m (AMSL)
06 Glidescope IQB 109.50 MHz 18 nm / 33 km 42.00° 57.79° 3.00° 233 ft / 71 m (AMSL)

Popular Alternatives